Location: ??????
(38.5153°N, 23.0340°E)
Time: 23:56:58
(UTC+00:00)

Meteor 2-10 - Pass Details

Date: 13 December 2025
Orbit: 737 x 865 km, 81.2° (Epoch: 14 January)

Event Time Altitude Azimuth Distance (km) Brightness Sun altitude
Rises 16:16:31 0° 355° (N) 3,320 7.1 -13.1°
Reaches altitude 10° 16:18:55 10° 360° (N) 2,405 6.4 -13.6°
Maximum altitude 16:24:17 56° 78° (ENE) 984 4.2 -14.6°
Drops below altitude 10° 16:29:46 10° 157° (SSE) 2,464 6.6 -15.6°
Sets 16:32:15 0° 161° (SSE) 3,409 7.3 -16.1°
